Wind_Speed
3 2 2 2 2 1 1 1 1 1 1 1 1 1 2 2 1 1 1 1 1 1 1 2 1 1 2 2 2 1 1 2 1 1 1 1 0 0 0 1 1 1 1
3 3 2 2 1 1 1 2 1 1 0 1 1 1 1 2 1 1 1 1 1 1 1 1 1 1 2 3 2 2 2 2 2 2 1 1 1 0 0 1 1 1 1
3 3 3 2 1 1 1 2 2 2 1 1 1 1 1 1 1 1 1 1 1 1 1 1 1 1 2 3 3 2 2 2 1 1 1 1 0 0 0 1 1 1 2
4 4 4 3 2 2 1 1 2 2 2 2 1 1 1 1 1 2 1 1 1 1 1 1 1 1 2 2 2 2 2 2 2 2 1 1 1 1 1 1 1 2 2
5 5 5 4 3 3 2 2 2 3 3 2 2 2 1 1 2 2 2 2 1 1 1 1 1 1 1 1 2 2 2 2 2 1 2 1 1 1 1 2 2 3 3
6 6 5 5 5 4 3 3 2 3 3 3 3 3 3 3 2 2 2 2 1 1 2 2 2 2 1 1 1 1 1 1 1 1 2 2 2 2 2 2 2 3 3
6 6 7 6 6 5 4 4 3 3 3 3 3 4 4 4 3 3 2 2 2 3 3 2 2 2 2 2 2 2 2 2 2 2 2 2 2 3 3 3 3 2 3
7 7 7 7 7 6 5 5 5 4 4 4 4 4 4 4 4 4 4 4 4 4 4 4 4 4 3 3 3 3 3 3 3 3 3 3 3 3 4 4 4 3 3
7 8 8 8 8 7 7 6 6 5 5 5 5 5 5 5 6 5 5 5 5 5 5 5 5 5 4 4 4 4 4 4 4 4 4 4 4 5 5 5 5 5 5
8 9 9 9 9 9 8 8 7 6 6 6 6 6 6 6 6 7 7 6 6 6 6 6 6 6 6 6 6 5 5 5 5 5 5 5 6 6 6 6 6 7 7
9 10 10 10 10 10 9 9 8 8 7 7 7 7 7 7 8 8 8 7 7 7 7 7 7 7 7 7 7 7 7 7 7 7 7 7 7 7 7 7 8 8 8
9 10 10 10 10 10 10 9 10 9 9 8 8 8 8 8 9 9 9 9 9 8 8 9 9 9 9 9 8 8 8 8 8 8 8 8 8 8 9 9 9 10 11
9 10 10 10 10 11 11 11 11 11 10 10 9 10 10 10 10 10 11 10 10 10 10 10 10 10 10 10 10 10 10 9 9 10 10 10 11 11 11 11 12 13 13
10 10 10 10 11 11 12 12 12 11 12 11 11 11 11 11 11 11 12 12 12 12 12 12 12 12 11 11 12 12 11 11 11 12 12 12 12 13 13 13 14 14 14
11 11 11 11 11 11 12 13 13 14 14 13 13 13 13 13 13 13 13 13 13 14 14 14 13 13 13 13 13 13 13 13 13 13 13 13 13 14 14 15 15 15 16
11 12 13 13 13 13 14 14 14 15 15 14 14 14 14 14 14 14 14 14 15 15 15 15 15 15 15 15 15 15 15 15 15 15 15 15 15 15 15 16 17 17 18
10 12 13 14 14 14 14 15 15 15 15 15 16 15 15 16 16 16 16 16 16 16 16 16 17 17 17 17 17 17 17 17 17 17 17 17 17 17 18 18 19 20 21
11 11 12 13 14 15 15 15 15 15 16 16 17 16 16 17 17 18 18 17 17 17 17 17 18 18 19 19 19 19 20 19 19 19 20 20 20 20 21 21 22 22 23
12 12 12 12 13 14 15 16 16 16 16 16 17 17 17 17 18 18 18 18 18 18 19 19 19 19 20 20 21 21 21 21 21 21 22 22 22 22 23 23 24 24 25
12 13 13 13 13 14 14 15 16 17 17 17 17 17 18 17 18 18 18 19 19 19 19 20 20 20 21 22 22 22 23 22 22 23 24 24 25 25 25 26 26 27 27
13 13 14 14 14 15 15 16 16 17 17 17 18 19 20 19 19 19 19 20 20 20 20 20 21 21 21 22 23 24 25 24 24 25 26 26 27 27 27 28 28 29 30
14 15 15 16 16 16 16 17 18 18 18 18 19 19 20 20 20 21 21 21 22 22 22 22 22 23 22 23 24 25 25 26 26 27 28 28 28 29 30 30 30 31 31
16 16 17 17 17 17 18 19 19 19 19 19 19 20 21 21 21 22 23 23 23 24 24 24 24 24 24 25 26 26 26 27 28 28 29 30 30 31 32 32 32 33 34
17 17 18 18 18 17 18 18 18 18 19 19 20 21 21 21 23 23 23 23 22 23 24 25 25 25 25 26 27 27 28 29 30 31 32 32 33 34 36 36 35 36 37
17 17 18 18 17 17 17 18 18 19 19 20 20 21 21 22 23 23 23 23 24 24 24 24 24 24 25 27 28 29 30 31 31 32 34 34 35 36 37 37 38 39 40
18 18 18 18 18 17 18 18 19 20 20 21 22 22 22 22 23 23 23 23 23 24 24 25 26 26 27 28 29 30 31 32 33 34 34 35 36 37 38 38 40 41 42
Wind_Direction
174 165 153 161 159 153 153 154 144 85 51 62 72 56 46 48 47 54 51 34 23 36 45 25 30 11 10 18 14 30 55 53 69 94 95 93 113 168 209 198 227 236 239
194 200 199 195 190 190 188 189 193 185 112 55 44 40 31 43 48 49 46 34 21 20 20 32 59 48 41 43 39 52 73 67 79 86 78 64 51 200 244 249 236 221 217
210 213 214 228 227 233 207 200 215 220 217 233 307 338 16 34 14 26 25 24 26 26 19 20 16 34 45 33 34 64 73 69 60 51 49 30 355 302 251 261 234 232 245
223 225 235 239 242 259 244 208 212 235 244 249 267 282 334 347 334 343 343 326 298 305 315 333 347 20 22 21 33 41 50 56 38 30 19 359 336 287 288 287 273 260 258
232 233 238 234 237 246 245 232 227 242 245 241 254 266 288 306 318 319 318 310 300 322 308 318 326 333 351 358 5 13 18 22 19 12 358 343 320 303 296 286 281 274 271
235 231 234 236 236 241 246 250 243 245 243 248 262 278 288 294 301 310 303 292 284 298 296 299 304 294 310 305 321 330 336 342 342 329 332 336 319 304 306 295 292 288 279
237 232 232 238 238 240 243 248 239 242 251 264 275 283 288 291 296 301 298 285 273 276 283 290 292 289 288 290 292 299 304 302 306 312 314 320 314 307 307 305 303 302 288
240 235 235 235 236 239 243 249 251 254 264 273 277 280 282 287 290 293 290 284 278 276 278 283 283 287 280 284 284 289 295 298 292 290 296 303 304 303 302 299 301 300 299
247 244 241 239 238 240 245 251 258 263 267 274 277 279 280 285 287 288 290 285 279 278 278 282 281 277 275 279 281 284 290 293 287 288 292 291 292 293 296 291 292 296 294
253 249 247 247 246 245 249 253 256 262 266 275 279 278 280 284 284 284 283 285 282 279 279 277 278 273 273 272 274 276 282 285 283 280 282 282 284 287 288 287 286 289 289
260 256 254 253 251 250 252 255 255 259 264 273 279 279 278 278 278 278 280 282 282 280 278 275 274 272 269 270 271 273 276 277 278 277 276 279 282 282 283 283 284 286 286
261 259 255 254 255 252 252 254 255 257 264 269 273 277 278 277 275 272 275 280 281 281 281 278 274 270 269 270 272 276 277 276 276 277 275 276 280 280 282 282 282 282 282
261 263 259 256 258 256 255 254 254 257 262 267 271 275 274 275 277 275 273 275 276 278 279 277 275 273 270 269 271 275 276 276 276 277 275 275 275 277 278 280 280 281 282
261 263 262 261 259 257 256 256 255 260 265 265 269 273 274 276 278 280 277 273 272 275 276 276 277 273 272 272 271 273 274 275 276 277 278 278 278 279 279 280 280 281 281
261 262 261 264 263 261 261 260 259 262 267 267 270 275 275 276 279 278 277 275 275 274 274 275 276 274 272 273 273 274 275 276 277 278 278 279 279 279 279 278 279 279 280
269 267 264 265 264 262 262 262 262 264 269 268 271 275 276 276 279 278 279 279 278 276 275 274 274 273 271 271 274 275 274 276 276 276 276 277 278 279 280 279 280 280 281
277 274 269 268 265 265 265 265 265 263 268 270 273 274 276 276 278 279 279 278 279 278 276 273 272 272 272 271 273 274 274 275 276 275 275 277 279 279 280 280 282 283 283
283 281 278 274 269 266 264 264 264 265 269 273 273 274 276 275 277 278 278 277 278 278 277 275 273 273 273 275 275 273 273 274 275 276 276 277 277 280 280 281 281 283 284
284 281 279 276 272 270 268 263 265 267 271 276 276 275 276 276 278 277 277 279 279 278 277 277 276 273 273 274 275 274 275 275 274 276 278 279 280 280 281 282 282 284 284
285 283 280 277 276 274 270 267 266 267 270 273 276 275 278 281 280 277 277 278 279 278 278 278 277 276 276 276 275 276 278 277 276 277 279 279 279 280 281 282 283 285 285
284 283 282 281 279 275 270 268 268 270 272 273 275 277 278 280 281 279 278 278 278 279 279 278 279 278 278 277 275 276 277 278 277 278 279 279 278 280 281 281 282 284 285
283 284 283 281 279 276 272 270 269 269 272 272 275 279 281 280 279 279 279 279 278 278 279 279 280 279 279 278 276 276 277 278 277 278 278 279 279 280 281 282 282 283 285
281 282 282 281 280 276 274 271 270 270 272 274 276 279 282 282 280 278 278 280 278 277 278 280 280 279 280 279 277 276 277 277 277 278 278 279 280 281 282 284 283 283 284
282 282 281 280 280 277 276 272 271 271 272 275 278 281 283 281 281 279 279 279 280 280 280 280 280 280 280 280 279 277 276 277 278 280 280 280 280 281 282 283 284 284 284
282 283 281 279 279 279 278 274 271 270 271 274 277 279 279 281 282 281 280 279 279 280 282 283 282 283 281 280 280 279 279 280 281 281 281 281 282 283 284 285 285 285 287
280 281 280 279 278 278 277 276 274 272 271 273 275 277 280 284 284 283 281 281 281 282 283 285 285 284 284 283 281 280 280 281 282 283 283 283 283 285 285 287 287 287 288
Height
5907 5907 5907 5907 5907 5907 5907 5907 5907 5907 5907 5907 5907 5906 5906 5906 5905 5905 5905 5905 5905 5904 5904 5904 5903 5903 5902 5902 5901 5901 5901 5901 5901 5901 5901 5901 5901 5901 5901 5901 5901 5901 5902
5907 5907 5907 5907 5907 5907 5907 5907 5907 5907 5907 5907 5907 5907 5906 5906 5906 5905 5905 5905 5904 5904 5904 5904 5903 5903 5903 5902 5902 5901 5901 5901 5901 5901 5901 5901 5901 5901 5901 5901 5901 5901 5901
5906 5906 5907 5907 5907 5907 5907 5907 5907 5907 5907 5907 5907 5907 5907 5906 5906 5905 5905 5905 5904 5904 5904 5904 5904 5903 5903 5902 5902 5901 5901 5901 5901 5901 5901 5901 5901 5901 5901 5900 5900 5901 5901
5906 5906 5907 5907 5907 5907 5907 5907 5907 5907 5907 5907 5907 5907 5907 5906 5906 5905 5905 5905 5904 5904 5904 5904 5904 5903 5903 5903 5902 5902 5901 5901 5901 5901 5901 5901 5901 5900 5900 5900 5900 5900 5900
5905 5906 5906 5906 5907 5907 5907 5907 5907 5907 5907 5907 5907 5907 5907 5906 5906 5905 5905 5905 5904 5904 5904 5904 5903 5903 5903 5903 5902 5902 5902 5901 5901 5901 5901 5900 5900 5900 5900 5900 5900 5900 5900
5904 5904 5905 5906 5906 5906 5906 5906 5907 5907 5907 5907 5907 5907 5906 5906 5906 5905 5905 5905 5904 5904 5904 5903 5903 5903 5903 5902 5902 5902 5902 5901 5901 5901 5901 5900 5900 5900 5900 5899 5899 5899 5899
5903 5903 5904 5905 5905 5906 5906 5906 5906 5906 5907 5906 5906 5906 5906 5906 5905 5905 5905 5905 5904 5904 5904 5903 5903 5903 5902 5902 5902 5902 5902 5901 5901 5901 5900 5900 5900 5899 5899 5899 5898 5898 5898
5901 5902 5903 5904 5904 5905 5905 5906 5906 5906 5906 5906 5906 5906 5905 5906 5905 5905 5904 5904 5904 5904 5903 5903 5903 5902 5902 5902 5901 5901 5901 5901 5900 5900 5900 5899 5899 5899 5899 5898 5898 5897 5897
5900 5900 5901 5902 5903 5904 5904 5905 5905 5905 5905 5905 5905 5905 5905 5904 5904 5904 5904 5903 5903 5903 5903 5902 5902 5902 5901 5901 5900 5900 5900 5900 5900 5899 5899 5898 5898 5898 5898 5897 5897 5897 5896
5899 5899 5900 5901 5902 5902 5903 5903 5904 5904 5904 5904 5904 5904 5904 5903 5903 5903 5903 5902 5902 5902 5901 5901 5901 5900 5900 5899 5899 5899 5899 5899 5898 5898 5898 5897 5897 5897 5896 5896 5895 5895 5895
5897 5898 5899 5899 5900 5901 5901 5902 5902 5903 5903 5903 5903 5903 5902 5902 5901 5901 5901 5901 5900 5900 5900 5900 5899 5899 5898 5898 5898 5898 5897 5897 5897 5896 5896 5896 5895 5895 5895 5894 5894 5893 5893
5896 5896 5897 5897 5898 5898 5899 5900 5900 5901 5901 5901 5901 5901 5901 5900 5900 5899 5899 5899 5898 5898 5898 5898 5897 5897 5897 5896 5896 5896 5896 5895 5895 5894 5894 5894 5893 5893 5892 5892 5892 5891 5890
5894 5894 5895 5895 5896 5896 5897 5898 5898 5898 5899 5899 5899 5899 5899 5898 5898 5897 5897 5896 5896 5896 5895 5895 5895 5894 5894 5894 5894 5894 5893 5893 5892 5892 5892 5891 5891 5890 5890 5889 5889 5888 5887
5891 5892 5893 5893 5893 5894 5895 5895 5896 5896 5896 5896 5897 5897 5896 5896 5895 5895 5894 5894 5893 5893 5892 5892 5892 5891 5891 5891 5891 5891 5890 5890 5889 5889 5889 5888 5888 5887 5886 5886 5885 5885 5884
5890 5890 5890 5891 5891 5892 5892 5892 5893 5893 5894 5894 5894 5894 5893 5893 5892 5892 5891 5891 5891 5890 5889 5889 5888 5888 5888 5888 5888 5887 5887 5886 5886 5886 5885 5884 5884 5883 5883 5882 5881 5881 5880
5887 5887 5887 5888 5888 5888 5889 5889 5890 5890 5890 5890 5890 5890 5890 5889 5889 5888 5887 5887 5887 5886 5885 5885 5885 5884 5884 5884 5884 5883 5883 5883 5882 5881 5881 5880 5879 5879 5878 5878 5877 5876 5875
5885 5884 5884 5885 5885 5885 5885 5885 5886 5886 5887 5887 5887 5886 5886 5886 5885 5884 5884 5883 5882 5882 5882 5881 5880 5880 5880 5879 5879 5879 5878 5878 5878 5877 5876 5876 5875 5874 5874 5873 5872 5871 5870
5882 5882 5881 5881 5881 5881 5881 5882 5882 5883 5883 5883 5883 5882 5882 5882 5881 5880 5879 5879 5878 5878 5877 5877 5876 5875 5875 5874 5874 5874 5873 5873 5872 5872 5871 5871 5870 5869 5868 5867 5866 5865 5863
5879 5879 5878 5877 5877 5877 5878 5878 5878 5879 5879 5879 5878 5878 5877 5877 5876 5876 5875 5874 5874 5873 5873 5872 5871 5870 5870 5869 5869 5868 5867 5867 5867 5866 5866 5865 5864 5863 5862 5861 5859 5858 5857
5876 5876 5875 5874 5874 5874 5874 5874 5875 5875 5875 5875 5874 5874 5873 5872 5872 5871 5870 5870 5869 5869 5868 5867 5866 5865 5865 5864 5863 5863 5862 5861 5861 5860 5859 5858 5857 5856 5855 5854 5853 5851 5850
5873 5873 5872 5871 5870 5870 5870 5871 5871 5871 5870 5870 5870 5869 5869 5868 5867 5867 5866 5865 5864 5863 5862 5861 5861 5860 5859 5858 5857 5857 5856 5855 5854 5853 5852 5851 5850 5849 5848 5846 5845 5843 5842
5870 5869 5868 5868 5867 5867 5866 5866 5866 5866 5866 5865 5865 5865 5864 5863 5862 5862 5860 5860 5859 5858 5857 5856 5855 5854 5853 5852 5851 5850 5849 5849 5848 5847 5845 5844 5842 5841 5840 5838 5837 5835 5833
5866 5865 5865 5864 5863 5862 5862 5862 5861 5861 5861 5861 5860 5860 5859 5858 5857 5856 5855 5854 5853 5852 5851 5850 5849 5847 5846 5845 5844 5843 5842 5841 5840 5839 5837 5836 5834 5833 5831 5829 5828 5826 5824
5862 5861 5860 5860 5859 5858 5857 5857 5856 5856 5856 5856 5855 5855 5853 5852 5851 5850 5848 5848 5847 5846 5844 5843 5842 5840 5839 5838 5837 5836 5835 5834 5832 5831 5829 5828 5826 5824 5822 5820 5818 5816 5814
5857 5856 5856 5855 5854 5853 5852 5852 5852 5852 5851 5851 5850 5849 5848 5847 5846 5844 5843 5842 5841 5839 5838 5836 5835 5833 5832 5831 5829 5828 5827 5825 5824 5822 5820 5818 5816 5814 5812 5810 5807 5805 5803
5853 5852 5851 5850 5850 5849 5848 5848 5847 5847 5846 5845 5844 5843 5842 5841 5840 5838 5837 5836 5834 5833 5831 5829 5828 5826 5825 5823 5821 5820 5818 5816 5815 5813 5811 5809 5807 5804 5802 5800 5796 5794 5791